Location: Ambatotampy
(18.8181°S, 47.6186°E)
Time: 00:12:21
(UTC+00:00)

CZ-4C R/B - Pass Details

Date: 21 January 2021
Orbit: 407 x 488 km, 97.7° (Epoch: 24 February)

Event Time Altitude Azimuth Distance (km) Brightness Sun altitude
Rises 01:38:38 0° 168° (SSE) 2,575 7.3 -11.7°
Reaches altitude 10° 01:40:44 10° 167° (SSE) 1,681 6.4 -11.2°
Maximum altitude 01:44:22 82° 80° (E) 491 3.1 -10.5°
Drops below altitude 10° 01:47:52 10° 351° (N) 1,628 5.4 -9.7°
Sets 01:49:53 0° 350° (N) 2,485 6.3 -9.3°
